Regional Weather Roundup
Issued by NWS

Home | Current Version | Previous Version | Text Only | Print | Product List | Glossary On
Versions: 1 2 3 4 5 6 7 8 9 10 11 12 13 14 15 16 17 18 19 20 21 22 23 24 25 26 27 28 29 30 31 32 33 34 35 36 37 38 39 40 41 42 43 44 45 46 47 48 49 50
000
ASUS45 KTFX 252019
RWRMT
MONTANA HOURLY WEATHER ROUNDUP
NATIONAL WEATHER SERVICE GREAT FALLS MT
119 PM MST TUE NOV 25 2014

NOTE: "FAIR" INDICATES FEW OR NO CLOUDS BELOW 12000 FEET WITH NO
SIGNIFICANT WEATHER AND/OR OBSTRUCTIONS TO VISIBILITY.

* THESE STATIONS ARE NOT UNDER NWS QUALITY CONTROL. THEY DO NOT
   REPORT WEATHER SUCH AS PRECIPITATION OR FOG.

MTZ001>007-043-252100-
WEST OF THE DIVIDE
CITY           SKY/WX    TMP DP  RH WIND       PRES   REMARKS
KALISPELL      FOG       36  34  92 CALM      30.07S
MISSOULA       LGT RAIN  37  34  89 N12G21    30.12R WCI  29
BUTTE          LGT SNOW  34  30  85 NW7       30.00R VSB 3/4  WCI  28
MULLAN PASS    LGT SNOW  28  27  96 NW6       30.07S VSB M1/4 WCI  21
* ESSEX        N/A       34  31  89 N/A        N/A
* EUREKA APT   CLOUDY    36  34  92 CALM      30.10S
* HAMILTON APT CLOUDY    36  36 100 N6        30.09R WCI  31
* LIBBY APT    CLOUDY   N/A N/A N/A CALM      30.11F
* LINCOLN      N/A       35  32  89 SW4G12     N/A
* LOOKOUT PASS N/A       31  31 100 VRB6       N/A   WCI  25
* POLSON       N/A       36  36 100 S1         N/A
* RONAN APT    CLOUDY    37  36  96 SE5        N/A   WCI  33
* SEELEY LAKE  N/A       34  31  89 NW5G10     N/A   WCI  29
* THOMP F APT  CLOUDY    30  25  82 E4         N/A
* YAAK HILL    N/A       36  34  92 N/A        N/A
$$

MTZ008-052>055-252100-
SOUTHWEST MONTANA
CITY           SKY/WX    TMP DP  RH WIND       PRES   REMARKS
BOZEMAN        LGT RAIN  39  36  89 W12       29.99R WCI  32
DILLON         CLOUDY    43  32  65 SW21      29.99S
* W YELLOWSTON CLOUDY    28  25  89 SW6G13     N/A   WCI  21
* ENNIS APT    CLOUDY    37  34  89 S6         N/A   WCI  32
* THREE FORKS  CLOUDY    41  41 100 NW8        N/A
* BOULDER HILL N/A       32  29  89 N12G17     N/A   WCI  23
* MONIDA PASS  N/A       27  25  92 SE12       N/A   WCI  16
* RAYNOLDS PAS N/A       26   8  46 SE12       N/A   WCI  15
* WHITEHALL    N/A       42  37  83 NW6G16     N/A
* WISE RIVER   N/A       35  32  89 W8G16      N/A   WCI  28
$$

MTZ009>010-012-014-046-048-049-054-252100-
EAST SLOPES AND CENTRAL MONTANA
CITY           SKY/WX    TMP DP  RH WIND       PRES   REMARKS
CUT BANK       CLOUDY    36  19  50 N17       30.01R WCI  26
GREAT FALLS    CLOUDY    34  27  76 VRB6      30.04R WCI  29
HELENA         LGT RAIN  37  36  96 W5        30.01R WCI  33
MALMSTROM AFB  CLOUDY    34  25  70 N9        30.05R WCI  27
* CONRAD       CLOUDY    36  21  54 NW8        N/A   WCI  30
* DEARBORN     N/A       38  25  60 N/A        N/A
* EAST GLACIER N/A       29  20  69 E6         N/A   WCI  23
* MONARCH      N/A       26  23  88 NW7        N/A   WCI  18
* PENDROY      N/A       33  21  61 N9         N/A   WCI  25
* ROGERS PASS  N/A       33  25  72 SE3G19     N/A
* SAINT MARY   N/A       32  19  59 NE5G12     N/A   WCI  27
* SWEET GRASS  N/A       32  21  64 N20G26     N/A   WCI  20
* WHITE SULPH  N/A       34  32  92 NW6G16     N/A   WCI  29
$$

MTZ011-013-016-021-035-040-045-047-050-051-252100-
NORTH CENTRAL MONTANA
CITY           SKY/WX    TMP DP  RH WIND       PRES   REMARKS
HAVRE          CLOUDY    37  25  62 NW26G35   29.95R WCI  25
LEWISTOWN      CLOUDY    34  27  76 W13       29.95S WCI  25
* N BAR RANCH  PTSUNNY   30  23  75 NW17G23   29.92R WCI  18
* CHINOOK      PTSUNNY   37  25  62 NW22G28   29.93R WCI  26
* FORT BENTON  CLOUDY    39  21  48 W12       30.02R WCI  32
* MALTA APT    PTCLDY    36  25  64 NW22G28    N/A   WCI  25
* CHESTER      N/A       35  21  57 N17G27     N/A   WCI  25
* DENTON       N/A       34  26  73 NW16       N/A   WCI  24
* GEYSER       N/A       30  30 100 W12        N/A   WCI  20
* JUDITH GAP   N/A       27  27 100 N31G40     N/A   WCI  11
* LOMA         N/A       39  23  53 NW12G21    N/A   WCI  32
$$

MTZ017>020-022>027-061-062-252100-
NORTHEAST MONTANA
CITY           SKY/WX    TMP DP  RH WIND       PRES   REMARKS
GLASGOW        CLOUDY    36  28  73 NW21G29   29.79R WCI  25
GLENDIVE       CLOUDY    37  28  70 W23G36    29.76R WCI  26
JORDAN         CLOUDY    37  28  70 W20       29.83R WCI  27
SIDNEY         PTCLDY    37  27  67 W21G28    29.72R WCI  26
WOLF POINT     CLOUDY    37  28  70 NW22G32   29.78R WCI  26
* BEAVER HILL  N/A       36  30  79 W19G27     N/A   WCI  25
* CIRCLE       N/A       37  31  79 NW12G17    N/A   WCI  29
* LINDSAY DVD  N/A       35  29  79 W27G34     N/A   WCI  22
* NAVAJO       N/A       29  26  89 N21G30     N/A   WCI  16
* PLENTYWOOD A PTCLDY    28  27  96 N22       29.72R WCI  14
* POPLAR APT   N/A       36  27  70 N/A       29.75R
* SCOBEY APT   PTCLDY    30  21  69 N18G25     N/A   WCI  18
$$

MTZ028>042-056>058-252100-
SOUTHCENTRAL AND SOUTHEAST MONTANA
CITY           SKY/WX    TMP DP  RH WIND       PRES   REMARKS
BAKER          CLOUDY    37  32  82 W20       29.75R WCI  27
BILLINGS       CLOUDY    39  30  70 N16       29.91R WCI  30
LIVINGSTON     LGT SNOW  34 N/A N/A NW10      29.97R VSB 3/4  WCI  26
MILES CITY     PTSUNNY   39  28  65 NW28G38   29.82R WCI  27
* BIG TIMBER A CLOUDY    37  34  89 NE3       29.94R
* FORSYTH APT  CLOUDY    34  34 100 NW9G26    29.87R VSB 1 1/2 WCI  27
* LAUREL APT   CLOUDY    39  28  65 W7         N/A   WCI  34
* ALZADA       N/A       34  32  92 W15        N/A   WCI  24
* HYSHAM       N/A       35  31  85 NW5G12     N/A   WCI  31
* LAME DEER    N/A       31  30  96 NW10G20    N/A   WCI  22
* REED POINT   N/A       35  34  96 SW9G16     N/A   WCI  28
* ROSCOE HILL  N/A       31  27  85 N12G19     N/A   WCI  22
$$

REGIONAL REPORTS...DAKOTAS
CITY           SKY/WX    TMP DP  RH WIND       PRES   REMARKS
WILLISTON      CLOUDY    36  30  79 NW14      29.68R WCI  27
DICKINSON      CLOUDY    36  32  85 W17       29.65S WCI  26
BEACH          CLOUDY    36  32  85 NW21G29   29.72R WCI  25
CROSBY         LGT SNOW  27  27 100 NE17      29.75R VSB 1 1/2 WCI  14
TIOGA          LGT SNOW  32  32 100 NW7       29.69R VSB 1 1/2 WCI  25
BISMARCK       SNOW      32  30  92 S12       29.71F VSB 1/2  WCI  23
GRAND FORKS    CLOUDY    21  16  81 NE5       29.93F WCI  14
FARGO          CLOUDY    27  19  72 SE9       29.92F WCI  18
BUFFALO SD     PTSUNNY   37  32  82 NW29G37   29.66S WCI  25
RAPID CITY     CLOUDY    37  30  76 NW9       29.75F WCI  30
$$

REGIONAL REPORTS...WYOMING/IDAHO/WASHINGTON
CITY           SKY/WX    TMP DP  RH WIND       PRES   REMARKS
GILLETTE       LGT SNOW  34  30  85 NW18G26   29.83R VSB 3/4  WCI  23
SHERIDAN       LGT SNOW  34  30  85 NW25      29.90R VSB 3/4  WCI  21
CODY           CLOUDY    43  27  53 N18G24    29.90R
YELLOWSTONE LA CLOUDY    27  25  92 VRB6      30.00R WCI  20
SALMON         CLOUDY    36  30  79 CALM      30.08F
MULLAN PASS    LGT SNOW  28  27  96 NW6       30.07S VSB M1/4 WCI  21
SAND POINT     CLOUDY    37  37 100 CALM      30.15F
SPOKANE        CLOUDY    39  34  82 NW5       30.18F WCI  35
$$

REGIONAL REPORTS...ALBERTA
CITY           SKY/WX    TMP DP  RH WIND       PRES   REMARKS
CALGARY        PTSUNNY   32  21  64 N14G21    30.01R WCI  22
LETHBRIDGE     PTSUNNY   37  23  57 NW15      30.04R WCI  28
MEDICINE HAT   CLOUDY    28  23  81 N10       30.03R WCI  19
EDMONTON       LGT SNOW  19  14  81 N9        30.08R WCI   8
WATERTON GATE  N/A       34  21  59 E7         N/A   WCI  28
CARDSTON       N/A       34  21  59 NE6        N/A   WCI  29
MILK RIVER     N/A       34  25  70 N20G25     N/A   WCI  23
$$

REGIONAL REPORTS...SASKATCHEWAN
CITY           SKY/WX    TMP DP  RH WIND       PRES   REMARKS
SWIFT CURRENT  LGT SNOW  19  18  96 N15       29.92R WCI   5
MOOSE JAW      LGT SNOW  21  18  88 NE16      29.91R WCI   7
REGINA         CLOUDY    21  16  81 NE15      29.90R WCI   7
VAL MARIE      N/A       28  23  81 N23G30     N/A   WCI  14
ASSINIBOIA     N/A       21  18  88 N16        N/A   WCI   7
CORONACH       N/A       27  25  92 N21        N/A   WCI  13

$$




USA.gov is the U.S. government's official web portal to all federal, state and local government web resources and services.